Overview Statistics Trail Chart Weather Telemetry Raw packets
 

This is the latest recevied weather packets stored in our database for station/object KW4UJ. If no packets are shown the sender has not sent any weather packets the latest 10 day(s).

<< 23 24 25 26 27 28 29 >>
Time Temp. Humidity Pressure Rain* Wind** Luminosity Snow
1788475155 30.56° C 74% 1013.4 hPa 0 mm - 27 W/m² -
1788474854 30.56° C 75% 1013.5 hPa 0 mm - 27 W/m² -
1788474553 31.11° C 74% 1013.5 hPa 0 mm - 36 W/m² -
1788474249 31.11° C 73% 1013.4 hPa 0 mm - 43 W/m² -
1788473943 31.67° C 72% 1013.2 hPa 0 mm - 46 W/m² -
1788473642 31.67° C 71% 1013.5 hPa 0 mm - 105 W/m² -
1788473340 32.22° C 71% 1013.6 hPa 0 mm - 117 W/m² -
1788473034 32.22° C 70% 1013.7 hPa 0 mm - 132 W/m² -
1788472732 32.22° C 70% 1013.4 hPa 0 mm - 141 W/m² -
1788472429 32.22° C 70% 1013.4 hPa 0 mm - 153 W/m² -
1788472127 32.22° C 69% 1013.6 hPa 0 mm - 164 W/m² -
1788471823 32.78° C 68% 1013.5 hPa 0 mm - 175 W/m² -
1788471523 32.78° C 67% 1013.5 hPa 0 mm - 188 W/m² -
1788471218 32.78° C 65% 1013.6 hPa 0 mm - 205 W/m² -
1788470914 32.78° C 66% 1013.6 hPa 0 mm - 216 W/m² -
1788470610 33.33° C 65% 1013.6 hPa 0 mm - 225 W/m² -
1788470309 32.78° C 66% 1013.5 hPa 0 mm - 237 W/m² -
1788470006 32.78° C 65% 1013.8 hPa 0 mm - 248 W/m² -
1788469702 32.78° C 65% 1013.5 hPa 0 mm - 262 W/m² -
1788469402 33.33° C 64% 1013.6 hPa 0 mm - 271 W/m² -
1788469102 33.33° C 64% 1013.6 hPa 0 mm - 282 W/m² -
1788468801 33.33° C 65% 1014 hPa 0 mm - 295 W/m² -
1788468497 33.33° C 64% 1014 hPa 0 mm - 310 W/m² -
1788468193 33.33° C 64% 1013.8 hPa 0 mm - 314 W/m² -
1788467888 33.33° C 64% 1013.8 hPa 0 mm - 336 W/m² -

* Rain latest hour (hover to see other rain measurements)
** Current wind speed in m/s (hover to see current wind gust speed)